contact:dominique.lefevre@mio.osupytheas.fr, maurice.libes@osupytheas.fr, didier.mallarino@osupytheas.fr
Project:EMSO http://www.emso-fr.org/EMSO-France
Depth: 2436.0 m
Title:EMSO Ligure Ouest : Data MII capteur CSTAR
DateTime,Latitude,Longitude,Instrument_Serial,Reference_Counts,Signal_Counts,Corrected_Signal_raw_counts,Calculated_Beam_c_inverse_meters,Internal_thermistor_counts
DateTime,Latitude,Longitude,Instrument_Serial,Reference_Counts,Signal_Counts,Corrected_Signal_raw_counts,Calculated_Beam_c_inverse_meters,Internal_thermistor_counts
2022-04-03T00:02:53,42.805,6.029,CST-1368DR,4817,5700,12624,0.851,551
2022-04-03T00:05:55,42.805,6.029,CST-1368DR,4817,5694,12612,0.855,551
2022-04-03T00:08:56,42.805,6.029,CST-1368DR,4817,5696,12616,0.853,551
2022-04-03T00:11:58,42.805,6.029,CST-1368DR,4817,5696,12616,0.853,551
2022-04-03T00:14:59,42.805,6.029,CST-1368DR,4817,5696,12616,0.853,551
2022-04-03T00:18:01,42.805,6.029,CST-1368DR,4817,5695,12613,0.854,551
2022-04-03T00:21:03,42.805,6.029,CST-1368DR,4817,5696,12616,0.853,551
2022-04-03T00:24:04,42.805,6.029,CST-1368DR,4817,5698,12621,0.852,551
2022-04-03T00:27:06,42.805,6.029,CST-1368DR,4817,5697,12618,0.853,551
2022-04-03T00:30:07,42.805,6.029,CST-1368DR,4817,5696,12616,0.853,551
2022-04-03T00:33:09,42.805,6.029,CST-1368DR,4817,5694,12612,0.855,551
2022-04-03T00:36:10,42.805,6.029,CST-1368DR,4817,5694,12612,0.855,551
2022-04-03T00:39:12,42.805,6.029,CST-1368DR,4817,5696,12616,0.853,551
2022-04-03T00:42:14,42.805,6.029,CST-1368DR,4817,5697,12618,0.853,551
2022-04-03T00:45:15,42.805,6.029,CST-1368DR,4817,5696,12615,0.854,551
2022-04-03T00:48:17,42.805,6.029,CST-1368DR,4817,5698,12620,0.852,551
2022-04-03T00:51:18,42.805,6.029,CST-1368DR,4817,5693,12609,0.856,551
2022-04-03T00:54:20,42.805,6.029,CST-1368DR,4817,5707,12640,0.846,551
2022-04-03T00:57:21,42.805,6.029,CST-1368DR,4817,5696,12616,0.853,551
2022-04-03T01:00:23,42.805,6.029,CST-1368DR,4817,5699,12623,0.851,551
2022-04-03T01:03:25,42.805,6.029,CST-1368DR,4817,5700,12626,0.850,551
2022-04-03T01:06:26,42.805,6.029,CST-1368DR,4817,5705,12635,0.847,551
2022-04-03T01:09:28,42.805,6.029,CST-1368DR,4817,5706,12637,0.847,551
2022-04-03T01:12:29,42.805,6.029,CST-1368DR,4817,5705,12636,0.847,551
2022-04-03T01:15:31,42.805,6.029,CST-1368DR,4817,5700,12624,0.851,551
2022-04-03T01:18:33,42.805,6.029,CST-1368DR,4817,5701,12626,0.850,551
2022-04-03T01:21:34,42.805,6.029,CST-1368DR,4817,5708,12643,0.845,551
2022-04-03T01:24:36,42.805,6.029,CST-1368DR,4817,5704,12633,0.848,551
2022-04-03T01:27:37,42.805,6.029,CST-1368DR,4817,5701,12627,0.850,551
2022-04-03T01:30:39,42.805,6.029,CST-1368DR,4817,5703,12630,0.849,551
2022-04-03T01:33:40,42.805,6.029,CST-1368DR,4817,5701,12627,0.850,551
2022-04-03T01:36:42,42.805,6.029,CST-1368DR,4817,5700,12624,0.851,551
2022-04-03T01:39:44,42.805,6.029,CST-1368DR,4817,5702,12629,0.849,551
2022-04-03T01:42:45,42.805,6.029,CST-1368DR,4817,5705,12636,0.847,551
2022-04-03T01:45:47,42.805,6.029,CST-1368DR,4817,5701,12627,0.850,551
2022-04-03T01:48:48,42.805,6.029,CST-1368DR,4817,5710,12646,0.844,550
2022-04-03T01:51:50,42.805,6.029,CST-1368DR,4817,5708,12643,0.845,551
2022-04-03T01:54:51,42.805,6.029,CST-1368DR,4817,5705,12635,0.847,551
2022-04-03T01:57:53,42.805,6.029,CST-1368DR,4817,5710,12647,0.844,551
2022-04-03T02:00:55,42.805,6.029,CST-1368DR,4817,5705,12637,0.847,551
2022-04-03T02:03:56,42.805,6.029,CST-1368DR,4817,5701,12628,0.850,551
2022-04-03T02:06:58,42.805,6.029,CST-1368DR,4817,5706,12638,0.846,551
2022-04-03T02:09:59,42.805,6.029,CST-1368DR,4817,5707,12641,0.845,551
2022-04-03T02:13:01,42.805,6.029,CST-1368DR,4817,5704,12634,0.848,551
2022-04-03T02:16:03,42.805,6.029,CST-1368DR,4817,5704,12634,0.848,551
2022-04-03T02:19:04,42.805,6.029,CST-1368DR,4817,5705,12637,0.847,551
2022-04-03T02:22:06,42.805,6.029,CST-1368DR,4817,5709,12644,0.844,551
2022-04-03T02:25:07,42.805,6.029,CST-1368DR,4817,5709,12644,0.844,551
2022-04-03T02:28:09,42.805,6.029,CST-1368DR,4817,5701,12626,0.850,551
2022-04-03T02:31:10,42.805,6.029,CST-1368DR,4817,5697,12618,0.853,551
2022-04-03T02:34:12,42.805,6.029,CST-1368DR,4817,5698,12621,0.852,551
2022-04-03T02:37:14,42.805,6.029,CST-1368DR,4817,5706,12639,0.846,551
2022-04-03T02:40:15,42.805,6.029,CST-1368DR,4817,5704,12634,0.848,551
2022-04-03T02:43:17,42.805,6.029,CST-1368DR,4817,5703,12632,0.848,551
2022-04-03T02:46:18,42.805,6.029,CST-1368DR,4817,5706,12637,0.847,551
2022-04-03T02:49:20,42.805,6.029,CST-1368DR,4817,5706,12638,0.846,551
2022-04-03T02:52:21,42.805,6.029,CST-1368DR,4817,5709,12644,0.844,551
2022-04-03T02:55:23,42.805,6.029,CST-1368DR,4817,5711,12650,0.843,551
2022-04-03T02:58:25,42.805,6.029,CST-1368DR,4817,5707,12641,0.845,551
2022-04-03T03:01:26,42.805,6.029,CST-1368DR,4817,5706,12638,0.846,551
2022-04-03T03:04:28,42.805,6.029,CST-1368DR,4817,5710,12647,0.844,551
2022-04-03T03:07:29,42.805,6.029,CST-1368DR,4817,5703,12632,0.848,551
2022-04-03T03:10:31,42.805,6.029,CST-1368DR,4817,5705,12636,0.847,551
2022-04-03T03:13:33,42.805,6.029,CST-1368DR,4817,5705,12635,0.847,551
2022-04-03T03:16:34,42.805,6.029,CST-1368DR,4817,5708,12642,0.845,551
2022-04-03T03:19:36,42.805,6.029,CST-1368DR,4817,5705,12635,0.847,551
2022-04-03T03:22:37,42.805,6.029,CST-1368DR,4817,5705,12636,0.847,551
2022-04-03T03:25:39,42.805,6.029,CST-1368DR,4817,5706,12638,0.846,551
2022-04-03T03:28:40,42.805,6.029,CST-1368DR,4817,5709,12644,0.844,551
2022-04-03T03:31:42,42.805,6.029,CST-1368DR,4817,5706,12637,0.847,551
2022-04-03T03:34:44,42.805,6.029,CST-1368DR,4817,5706,12638,0.846,551
2022-04-03T03:37:45,42.805,6.029,CST-1368DR,4817,5704,12633,0.848,551
2022-04-03T03:40:47,42.805,6.029,CST-1368DR,4817,5708,12642,0.845,551
2022-04-03T03:43:48,42.805,6.029,CST-1368DR,4817,5707,12640,0.846,551
2022-04-03T03:46:50,42.805,6.029,CST-1368DR,4817,5704,12634,0.848,551
2022-04-03T03:49:52,42.805,6.029,CST-1368DR,4817,5699,12622,0.851,551
2022-04-03T03:52:53,42.805,6.029,CST-1368DR,4817,5706,12637,0.847,551
2022-04-03T03:55:55,42.805,6.029,CST-1368DR,4817,5708,12643,0.845,551
2022-04-03T03:58:56,42.805,6.029,CST-1368DR,4817,5706,12638,0.846,551
2022-04-03T04:01:58,42.805,6.029,CST-1368DR,4817,5705,12637,0.847,551
2022-04-03T04:04:59,42.805,6.029,CST-1368DR,4817,5704,12634,0.848,551
2022-04-03T04:08:01,42.805,6.029,CST-1368DR,4817,5705,12637,0.847,551
2022-04-03T04:11:03,42.805,6.029,CST-1368DR,4817,5704,12634,0.848,551
2022-04-03T04:14:04,42.805,6.029,CST-1368DR,4817,5702,12629,0.849,551
2022-04-03T04:17:06,42.805,6.029,CST-1368DR,4817,5703,12632,0.848,551
2022-04-03T04:20:07,42.805,6.029,CST-1368DR,4817,5705,12636,0.847,551
2022-04-03T04:23:09,42.805,6.029,CST-1368DR,4817,5709,12645,0.844,551
2022-04-03T04:26:10,42.805,6.029,CST-1368DR,4817,5702,12628,0.850,551
2022-04-03T04:29:12,42.805,6.029,CST-1368DR,4817,5701,12627,0.850,551
2022-04-03T04:32:14,42.805,6.029,CST-1368DR,4817,5702,12629,0.849,551
2022-04-03T04:35:15,42.805,6.029,CST-1368DR,4817,5711,12650,0.843,551
2022-04-03T04:38:17,42.805,6.029,CST-1368DR,4817,5707,12640,0.846,551
2022-04-03T04:41:18,42.805,6.029,CST-1368DR,4816,5701,12629,0.849,551
2022-04-03T04:44:20,42.805,6.029,CST-1368DR,4817,5702,12629,0.849,551
2022-04-03T04:47:22,42.805,6.029,CST-1368DR,4817,5704,12633,0.848,551
2022-04-03T04:50:23,42.805,6.029,CST-1368DR,4817,5702,12628,0.850,551
2022-04-03T04:53:25,42.805,6.029,CST-1368DR,4817,5701,12627,0.850,551
2022-04-03T04:56:26,42.805,6.029,CST-1368DR,4817,5702,12629,0.849,551
2022-04-03T04:59:28,42.805,6.029,CST-1368DR,4817,5701,12627,0.850,551
2022-04-03T05:02:29,42.805,6.029,CST-1368DR,4817,5699,12622,0.851,551
2022-04-03T05:05:31,42.805,6.029,CST-1368DR,4817,5702,12629,0.849,551
2022-04-03T05:08:33,42.805,6.029,CST-1368DR,4817,5705,12637,0.847,551
2022-04-03T05:11:34,42.805,6.029,CST-1368DR,4817,5699,12623,0.851,551
2022-04-03T05:14:36,42.805,6.029,CST-1368DR,4817,5701,12627,0.850,551
2022-04-03T05:17:37,42.805,6.029,CST-1368DR,4817,5703,12632,0.848,551
2022-04-03T05:20:39,42.805,6.029,CST-1368DR,4817,5703,12632,0.848,551
2022-04-03T05:23:40,42.805,6.029,CST-1368DR,4817,5701,12626,0.850,551
2022-04-03T05:26:42,42.805,6.029,CST-1368DR,4817,5698,12621,0.852,551
2022-04-03T05:29:44,42.805,6.029,CST-1368DR,4817,5703,12630,0.849,551
2022-04-03T05:32:45,42.805,6.029,CST-1368DR,4817,5693,12610,0.855,551
2022-04-03T05:35:47,42.805,6.029,CST-1368DR,4816,5699,12624,0.851,551
2022-04-03T05:38:48,42.805,6.029,CST-1368DR,4817,5696,12616,0.853,551
2022-04-03T05:41:50,42.805,6.029,CST-1368DR,4817,5697,12618,0.853,551
2022-04-03T05:44:52,42.805,6.029,CST-1368DR,4817,5701,12626,0.850,551
2022-04-03T05:47:53,42.805,6.029,CST-1368DR,4817,5702,12628,0.850,551
2022-04-03T05:50:55,42.805,6.029,CST-1368DR,4817,5701,12626,0.850,551
2022-04-03T05:53:56,42.805,6.029,CST-1368DR,4817,5703,12631,0.849,551
2022-04-03T05:56:58,42.805,6.029,CST-1368DR,4817,5704,12633,0.848,551
2022-04-03T05:59:59,42.805,6.029,CST-1368DR,4817,5703,12632,0.848,551
2022-04-03T06:03:01,42.805,6.029,CST-1368DR,4817,5702,12628,0.850,551
2022-04-03T06:06:03,42.805,6.029,CST-1368DR,4817,5699,12622,0.851,551
2022-04-03T06:09:04,42.805,6.029,CST-1368DR,4816,5696,12617,0.853,551
2022-04-03T06:12:06,42.805,6.029,CST-1368DR,4817,5704,12634,0.848,551
2022-04-03T06:15:07,42.805,6.029,CST-1368DR,4816,5703,12635,0.847,551
2022-04-03T06:18:09,42.805,6.029,CST-1368DR,4817,5703,12630,0.849,551
2022-04-03T06:21:10,42.805,6.029,CST-1368DR,4816,5704,12636,0.847,551
2022-04-03T06:24:12,42.805,6.029,CST-1368DR,4817,5703,12631,0.849,551
2022-04-03T06:27:14,42.805,6.029,CST-1368DR,4817,5703,12630,0.849,551
2022-04-03T06:30:15,42.805,6.029,CST-1368DR,4817,5706,12638,0.846,551
2022-04-03T06:33:17,42.805,6.029,CST-1368DR,4816,5703,12635,0.847,551
2022-04-03T06:36:18,42.805,6.029,CST-1368DR,4816,5691,12608,0.856,551
2022-04-03T06:39:20,42.805,6.029,CST-1368DR,4816,5702,12631,0.849,551
2022-04-03T06:42:22,42.805,6.029,CST-1368DR,4816,5705,12637,0.847,551
2022-04-03T06:45:23,42.805,6.029,CST-1368DR,4816,5700,12627,0.850,551
2022-04-03T06:48:25,42.805,6.029,CST-1368DR,4816,5703,12635,0.847,551
2022-04-03T06:51:26,42.805,6.029,CST-1368DR,4816,5705,12638,0.846,551
2022-04-03T06:54:28,42.805,6.029,CST-1368DR,4817,5704,12634,0.848,551
2022-04-03T06:57:29,42.805,6.029,CST-1368DR,4817,5702,12629,0.849,551
2022-04-03T07:00:31,42.805,6.029,CST-1368DR,4817,5705,12635,0.847,551
2022-04-03T07:03:33,42.805,6.029,CST-1368DR,4816,5700,12627,0.850,551
2022-04-03T07:06:34,42.805,6.029,CST-1368DR,4817,5703,12630,0.849,551
2022-04-03T07:09:36,42.805,6.029,CST-1368DR,4817,5703,12631,0.849,551
2022-04-03T07:12:37,42.805,6.029,CST-1368DR,4816,5702,12632,0.848,551
2022-04-03T07:15:39,42.805,6.029,CST-1368DR,4816,5702,12632,0.848,551
2022-04-03T07:18:40,42.805,6.029,CST-1368DR,4816,5704,12636,0.847,551
2022-04-03T07:21:42,42.805,6.029,CST-1368DR,4817,5708,12642,0.845,551
2022-04-03T07:24:44,42.805,6.029,CST-1368DR,4816,5699,12624,0.851,551
2022-04-03T07:27:45,42.805,6.029,CST-1368DR,4816,5701,12630,0.849,551
2022-04-03T07:30:47,42.805,6.029,CST-1368DR,4817,5702,12629,0.849,551
2022-04-03T07:33:48,42.805,6.029,CST-1368DR,4817,5706,12638,0.846,551
2022-04-03T07:36:50,42.805,6.029,CST-1368DR,4816,5702,12632,0.848,551
2022-04-03T07:39:52,42.805,6.029,CST-1368DR,4816,5699,12625,0.850,551
2022-04-03T07:42:53,42.805,6.029,CST-1368DR,4816,5700,12628,0.850,551
2022-04-03T07:45:55,42.805,6.029,CST-1368DR,4816,5701,12630,0.849,551
2022-04-03T07:48:56,42.805,6.029,CST-1368DR,4816,5701,12630,0.849,551
2022-04-03T07:51:58,42.805,6.029,CST-1368DR,4816,5700,12626,0.850,551
2022-04-03T07:54:59,42.805,6.029,CST-1368DR,4816,5699,12625,0.850,551
2022-04-03T07:58:01,42.805,6.029,CST-1368DR,4816,5699,12625,0.850,551
2022-04-03T08:01:03,42.805,6.029,CST-1368DR,4816,5701,12629,0.849,551
2022-04-03T08:04:04,42.805,6.029,CST-1368DR,4816,5703,12633,0.848,551
2022-04-03T08:07:06,42.805,6.029,CST-1368DR,4816,5700,12627,0.850,551
2022-04-03T08:10:07,42.805,6.029,CST-1368DR,4816,5702,12632,0.848,551
2022-04-03T08:13:09,42.805,6.029,CST-1368DR,4816,5706,12640,0.846,551
2022-04-03T08:16:11,42.805,6.029,CST-1368DR,4816,5701,12630,0.849,551
2022-04-03T08:19:12,42.805,6.029,CST-1368DR,4816,5701,12630,0.849,551
2022-04-03T08:22:14,42.805,6.029,CST-1368DR,4817,5702,12630,0.849,551
2022-04-03T08:25:15,42.805,6.029,CST-1368DR,4816,5705,12637,0.847,551
2022-04-03T08:28:17,42.805,6.029,CST-1368DR,4816,5702,12632,0.848,551
2022-04-03T08:31:18,42.805,6.029,CST-1368DR,4816,5701,12630,0.849,551
2022-04-03T08:34:20,42.805,6.029,CST-1368DR,4816,5700,12627,0.850,551
2022-04-03T08:37:22,42.805,6.029,CST-1368DR,4816,5701,12629,0.849,551
2022-04-03T08:40:23,42.805,6.029,CST-1368DR,4816,5702,12632,0.848,551
2022-04-03T08:43:25,42.805,6.029,CST-1368DR,4816,5701,12629,0.849,551
2022-04-03T08:46:26,42.805,6.029,CST-1368DR,4816,5703,12634,0.848,551
2022-04-03T08:49:28,42.805,6.029,CST-1368DR,4816,5700,12627,0.850,551
2022-04-03T08:52:29,42.805,6.029,CST-1368DR,4816,5705,12639,0.846,551
2022-04-03T08:55:31,42.805,6.029,CST-1368DR,4816,5702,12632,0.848,551
2022-04-03T08:58:33,42.805,6.029,CST-1368DR,4816,5703,12633,0.848,551
2022-04-03T09:01:34,42.805,6.029,CST-1368DR,4816,5703,12635,0.847,551
2022-04-03T09:04:36,42.805,6.029,CST-1368DR,4816,5702,12631,0.849,551
2022-04-03T09:07:37,42.805,6.029,CST-1368DR,4816,5700,12628,0.850,551
2022-04-03T09:10:39,42.805,6.029,CST-1368DR,4816,5699,12626,0.850,551
2022-04-03T09:13:40,42.805,6.029,CST-1368DR,4816,5705,12639,0.846,551
2022-04-03T09:16:42,42.805,6.029,CST-1368DR,4816,5704,12637,0.847,550
2022-04-03T09:19:44,42.805,6.029,CST-1368DR,4816,5699,12625,0.850,551
2022-04-03T09:22:45,42.805,6.029,CST-1368DR,4816,5701,12630,0.849,551
2022-04-03T09:25:47,42.805,6.029,CST-1368DR,4816,5700,12628,0.850,551
2022-04-03T09:28:48,42.805,6.029,CST-1368DR,4816,5703,12633,0.848,551
2022-04-03T09:31:50,42.805,6.029,CST-1368DR,4816,5701,12629,0.849,551
2022-04-03T09:34:52,42.805,6.029,CST-1368DR,4816,5703,12635,0.847,551
2022-04-03T09:37:53,42.805,6.029,CST-1368DR,4816,5700,12627,0.850,551
2022-04-03T09:40:55,42.805,6.029,CST-1368DR,4816,5702,12632,0.848,551
2022-04-03T09:43:56,42.805,6.029,CST-1368DR,4816,5702,12631,0.849,551
2022-04-03T09:46:58,42.805,6.029,CST-1368DR,4816,5702,12631,0.849,551
2022-04-03T09:49:59,42.805,6.029,CST-1368DR,4816,5699,12625,0.850,551
2022-04-03T09:53:01,42.805,6.029,CST-1368DR,4816,5701,12630,0.849,551
2022-04-03T09:56:03,42.805,6.029,CST-1368DR,4816,5708,12645,0.844,551
2022-04-03T09:59:04,42.805,6.029,CST-1368DR,4816,5704,12637,0.847,551
2022-04-03T10:02:06,42.805,6.029,CST-1368DR,4816,5704,12637,0.847,551
2022-04-03T10:05:07,42.805,6.029,CST-1368DR,4816,5706,12641,0.845,551
2022-04-03T10:08:09,42.805,6.029,CST-1368DR,4816,5706,12640,0.846,551
2022-04-03T10:11:10,42.805,6.029,CST-1368DR,4816,5705,12639,0.846,551
2022-04-03T10:14:12,42.805,6.029,CST-1368DR,4816,5703,12635,0.847,551
2022-04-03T10:17:14,42.805,6.029,CST-1368DR,4816,5706,12640,0.846,551
2022-04-03T10:20:15,42.805,6.029,CST-1368DR,4816,5706,12641,0.845,551
2022-04-03T10:23:17,42.805,6.029,CST-1368DR,4816,5709,12647,0.844,551
2022-04-03T10:26:18,42.805,6.029,CST-1368DR,4816,5704,12637,0.847,551
2022-04-03T10:29:20,42.805,6.029,CST-1368DR,4816,5707,12642,0.845,551
2022-04-03T10:32:22,42.805,6.029,CST-1368DR,4816,5704,12635,0.847,551
2022-04-03T10:35:23,42.805,6.029,CST-1368DR,4816,5706,12640,0.846,551
2022-04-03T10:38:25,42.805,6.029,CST-1368DR,4816,5706,12640,0.846,551
2022-04-03T10:41:26,42.805,6.029,CST-1368DR,4816,5705,12637,0.847,551
2022-04-03T10:44:28,42.805,6.029,CST-1368DR,4816,5700,12627,0.850,551
2022-04-03T10:47:29,42.805,6.029,CST-1368DR,4816,5700,12628,0.850,551
2022-04-03T10:50:31,42.805,6.029,CST-1368DR,4816,5701,12630,0.849,551
2022-04-03T10:53:33,42.805,6.029,CST-1368DR,4816,5706,12640,0.846,551
2022-04-03T10:56:34,42.805,6.029,CST-1368DR,4816,5702,12631,0.849,551
2022-04-03T10:59:36,42.805,6.029,CST-1368DR,4816,5697,12621,0.852,551
2022-04-03T11:02:37,42.805,6.029,CST-1368DR,4816,5700,12626,0.850,551
2022-04-03T11:05:39,42.805,6.029,CST-1368DR,4816,5698,12622,0.851,551
2022-04-03T11:08:41,42.805,6.029,CST-1368DR,4816,5701,12630,0.849,551
2022-04-03T11:11:42,42.805,6.029,CST-1368DR,4816,5701,12629,0.849,551
2022-04-03T11:14:44,42.805,6.029,CST-1368DR,4816,5699,12625,0.850,551
2022-04-03T11:17:45,42.805,6.029,CST-1368DR,4816,5701,12630,0.849,551
2022-04-03T11:20:47,42.805,6.029,CST-1368DR,4816,5701,12630,0.849,551
2022-04-03T11:23:48,42.805,6.029,CST-1368DR,4816,5701,12629,0.849,551
2022-04-03T11:26:50,42.805,6.029,CST-1368DR,4816,5706,12640,0.846,551
2022-04-03T11:29:52,42.805,6.029,CST-1368DR,4816,5702,12631,0.849,551
2022-04-03T11:32:53,42.805,6.029,CST-1368DR,4816,5703,12633,0.848,551
2022-04-03T11:35:55,42.805,6.029,CST-1368DR,4816,5702,12631,0.849,551
2022-04-03T11:38:56,42.805,6.029,CST-1368DR,4816,5699,12625,0.850,551
2022-04-03T11:41:58,42.805,6.029,CST-1368DR,4816,5702,12631,0.849,551
2022-04-03T11:44:59,42.805,6.029,CST-1368DR,4816,5704,12635,0.847,551
2022-04-03T11:48:01,42.805,6.029,CST-1368DR,4816,5702,12632,0.848,551
2022-04-03T11:51:03,42.805,6.029,CST-1368DR,4816,5699,12624,0.851,551
2022-04-03T11:54:04,42.805,6.029,CST-1368DR,4816,5704,12637,0.847,551
2022-04-03T11:57:06,42.805,6.029,CST-1368DR,4816,5705,12639,0.846,551
2022-04-03T12:00:07,42.805,6.029,CST-1368DR,4816,5699,12624,0.851,551
2022-04-03T12:03:09,42.805,6.029,CST-1368DR,4816,5704,12636,0.847,551
2022-04-03T12:06:11,42.805,6.029,CST-1368DR,4816,5706,12640,0.846,551
2022-04-03T12:09:12,42.805,6.029,CST-1368DR,4816,5706,12640,0.846,551
2022-04-03T12:12:14,42.805,6.029,CST-1368DR,4816,5705,12637,0.847,551
2022-04-03T12:15:15,42.805,6.029,CST-1368DR,4816,5704,12635,0.847,551
2022-04-03T12:18:17,42.805,6.029,CST-1368DR,4816,5703,12633,0.848,551
2022-04-03T12:21:18,42.805,6.029,CST-1368DR,4816,5703,12633,0.848,551
2022-04-03T12:24:20,42.805,6.029,CST-1368DR,4816,5704,12636,0.847,550
2022-04-03T12:27:22,42.805,6.029,CST-1368DR,4816,5701,12630,0.849,551
2022-04-03T12:30:23,42.805,6.029,CST-1368DR,4816,5701,12630,0.849,551
2022-04-03T12:33:25,42.805,6.029,CST-1368DR,4816,5705,12639,0.846,551
2022-04-03T12:36:26,42.805,6.029,CST-1368DR,4816,5704,12635,0.847,551
2022-04-03T12:39:28,42.805,6.029,CST-1368DR,4816,5705,12638,0.846,551
2022-04-03T12:42:29,42.805,6.029,CST-1368DR,4816,5702,12631,0.849,551
2022-04-03T12:45:31,42.805,6.029,CST-1368DR,4816,5705,12639,0.846,551
2022-04-03T12:48:33,42.805,6.029,CST-1368DR,4816,5704,12636,0.847,551
2022-04-03T12:51:34,42.805,6.029,CST-1368DR,4816,5690,12605,0.857,551
2022-04-03T12:54:36,42.805,6.029,CST-1368DR,4816,5702,12632,0.848,551
2022-04-03T12:57:37,42.805,6.029,CST-1368DR,4816,5692,12610,0.855,551
2022-04-03T13:00:39,42.805,6.029,CST-1368DR,4816,5703,12635,0.847,551
2022-04-03T13:03:41,42.805,6.029,CST-1368DR,4816,5698,12623,0.851,551
2022-04-03T13:06:42,42.805,6.029,CST-1368DR,4816,5697,12620,0.852,551
2022-04-03T13:09:44,42.805,6.029,CST-1368DR,4816,5699,12625,0.850,551
2022-04-03T13:12:45,42.805,6.029,CST-1368DR,4816,5697,12621,0.852,551
2022-04-03T13:15:47,42.805,6.029,CST-1368DR,4816,5698,12622,0.851,551
2022-04-03T13:18:48,42.805,6.029,CST-1368DR,4816,5709,12646,0.844,551
2022-04-03T13:21:50,42.805,6.029,CST-1368DR,4816,5700,12626,0.850,551
2022-04-03T13:24:52,42.805,6.029,CST-1368DR,4816,5703,12633,0.848,551
2022-04-03T13:27:53,42.805,6.029,CST-1368DR,4816,5702,12631,0.849,551
2022-04-03T13:30:55,42.805,6.029,CST-1368DR,4816,5700,12627,0.850,551
2022-04-03T13:33:56,42.805,6.029,CST-1368DR,4816,5704,12636,0.847,551
2022-04-03T13:36:58,42.805,6.029,CST-1368DR,4816,5705,12637,0.847,551
2022-04-03T13:39:59,42.805,6.029,CST-1368DR,4816,5699,12624,0.851,551
2022-04-03T13:43:01,42.805,6.029,CST-1368DR,4816,5706,12640,0.846,551
2022-04-03T13:46:03,42.805,6.029,CST-1368DR,4816,5706,12641,0.845,551
2022-04-03T13:49:04,42.805,6.029,CST-1368DR,4816,5702,12631,0.849,551
2022-04-03T13:52:06,42.805,6.029,CST-1368DR,4816,5699,12624,0.851,551
2022-04-03T13:55:07,42.805,6.029,CST-1368DR,4816,5703,12634,0.848,551
2022-04-03T13:58:09,42.805,6.029,CST-1368DR,4816,5699,12625,0.850,551
2022-04-03T14:01:11,42.805,6.029,CST-1368DR,4816,5703,12633,0.848,551
2022-04-03T14:04:12,42.805,6.029,CST-1368DR,4816,5703,12633,0.848,551
2022-04-03T14:07:14,42.805,6.029,CST-1368DR,4816,5703,12634,0.848,551
2022-04-03T14:10:15,42.805,6.029,CST-1368DR,4816,5701,12630,0.849,551
2022-04-03T14:13:17,42.805,6.029,CST-1368DR,4816,5702,12631,0.849,551
2022-04-03T14:16:18,42.805,6.029,CST-1368DR,4816,5700,12627,0.850,551
2022-04-03T14:19:20,42.805,6.029,CST-1368DR,4816,5703,12633,0.848,551
2022-04-03T14:22:22,42.805,6.029,CST-1368DR,4816,5700,12626,0.850,551
2022-04-03T14:25:23,42.805,6.029,CST-1368DR,4816,5701,12629,0.849,551
2022-04-03T14:28:25,42.805,6.029,CST-1368DR,4816,5700,12628,0.850,551
2022-04-03T14:31:26,42.805,6.029,CST-1368DR,4816,5699,12624,0.851,551
2022-04-03T14:34:28,42.805,6.029,CST-1368DR,4816,5698,12622,0.851,551
2022-04-03T14:37:30,42.805,6.029,CST-1368DR,4816,5697,12620,0.852,551
2022-04-03T14:40:31,42.805,6.029,CST-1368DR,4816,5704,12636,0.847,551
2022-04-03T14:43:33,42.805,6.029,CST-1368DR,4816,5705,12638,0.846,551
2022-04-03T14:46:34,42.805,6.029,CST-1368DR,4816,5692,12610,0.855,551
2022-04-03T14:49:36,42.805,6.029,CST-1368DR,4816,5706,12641,0.845,551
2022-04-03T14:52:37,42.805,6.029,CST-1368DR,4816,5699,12625,0.850,551
2022-04-03T14:55:39,42.805,6.029,CST-1368DR,4816,5705,12638,0.846,551
2022-04-03T14:58:41,42.805,6.029,CST-1368DR,4816,5703,12633,0.848,551
2022-04-03T15:01:42,42.805,6.029,CST-1368DR,4816,5695,12616,0.853,551
2022-04-03T15:04:44,42.805,6.029,CST-1368DR,4816,5702,12632,0.848,551
2022-04-03T15:07:45,42.805,6.029,CST-1368DR,4816,5706,12641,0.845,551
2022-04-03T15:10:47,42.805,6.029,CST-1368DR,4816,5697,12620,0.852,551
2022-04-03T15:13:48,42.805,6.029,CST-1368DR,4816,5703,12634,0.848,551
2022-04-03T15:16:50,42.805,6.029,CST-1368DR,4816,5708,12644,0.844,551
2022-04-03T15:19:52,42.805,6.029,CST-1368DR,4816,5702,12631,0.849,551
2022-04-03T15:22:53,42.805,6.029,CST-1368DR,4815,5612,12436,0.911,551
2022-04-03T15:25:55,42.805,6.029,CST-1368DR,4816,5665,12550,0.874,551
2022-04-03T15:28:56,42.805,6.029,CST-1368DR,4816,5669,12558,0.872,551
2022-04-03T15:31:58,42.805,6.029,CST-1368DR,4816,5671,12563,0.870,551
2022-04-03T15:35:00,42.805,6.029,CST-1368DR,4816,5660,12538,0.878,551
2022-04-03T15:38:01,42.805,6.029,CST-1368DR,4816,5692,12609,0.856,551
2022-04-03T15:41:03,42.805,6.029,CST-1368DR,4816,5669,12559,0.871,551
2022-04-03T15:44:04,42.805,6.029,CST-1368DR,4816,5679,12581,0.864,551
2022-04-03T15:47:06,42.805,6.029,CST-1368DR,4816,5670,12560,0.871,551
2022-04-03T15:50:07,42.805,6.029,CST-1368DR,4815,5641,12499,0.891,551
2022-04-03T15:53:09,42.805,6.029,CST-1368DR,4815,5655,12531,0.880,551
2022-04-03T15:56:11,42.805,6.029,CST-1368DR,4815,5631,12477,0.898,551
2022-04-03T15:59:12,42.805,6.029,CST-1368DR,4815,5639,12494,0.892,551
2022-04-03T16:02:14,42.805,6.029,CST-1368DR,4815,5652,12524,0.883,551
2022-04-03T16:05:15,42.805,6.029,CST-1368DR,4815,5646,12510,0.887,551
2022-04-03T16:08:17,42.805,6.029,CST-1368DR,4815,5644,12506,0.888,551
2022-04-03T16:11:18,42.805,6.029,CST-1368DR,4815,5661,12544,0.876,551
2022-04-03T16:14:20,42.805,6.029,CST-1368DR,4815,5662,12546,0.876,551
2022-04-03T16:17:22,42.805,6.029,CST-1368DR,4815,5644,12505,0.889,551
2022-04-03T16:20:23,42.805,6.029,CST-1368DR,4815,5660,12542,0.877,551
2022-04-03T16:23:25,42.805,6.029,CST-1368DR,4815,5657,12535,0.879,551
2022-04-03T16:26:26,42.805,6.029,CST-1368DR,4815,5651,12521,0.884,551
2022-04-03T16:29:28,42.805,6.029,CST-1368DR,4815,5651,12521,0.884,551
2022-04-03T16:32:30,42.805,6.029,CST-1368DR,4815,5652,12524,0.883,551
2022-04-03T16:35:31,42.805,6.029,CST-1368DR,4815,5649,12518,0.885,551
2022-04-03T16:38:33,42.805,6.029,CST-1368DR,4815,5656,12531,0.880,551
2022-04-03T16:41:34,42.805,6.029,CST-1368DR,4815,5654,12529,0.881,551
2022-04-03T16:44:36,42.805,6.029,CST-1368DR,4815,5656,12532,0.880,551
2022-04-03T16:47:37,42.805,6.029,CST-1368DR,4815,5652,12522,0.883,551
2022-04-03T16:50:39,42.805,6.029,CST-1368DR,4815,5652,12524,0.883,551
2022-04-03T16:53:41,42.805,6.029,CST-1368DR,4815,5650,12518,0.885,551